Погода в Кардамене

Греция     36°53′25″N   27°17′21″E
темп.,
°C
ветер,
м/с
пор.,
м/с
влажн.,
%
обл.,
%
осадки,
мм/ч
давл.,
гПа
погр.,
м
28 января, чт
чт2823:00+9зсз9117275 2.4 10091155
02:00+8зсз10127479 4.6 10111253
05:00+8сз10126633 0.9 10121533
08:00+8сз896361 2.1 10131383
11:00+9сз676275 0.9 10141338
14:00+8ссз566771 2.3 10131094
17:00+8с566392 0.6 10131059
20:00+7ссз576670 1.2 10141009
29 января, пт
пт2923:00+7ссз456373 0.3 1016998
02:00+9сз796786 0.6 10161295
05:00+7с467053 0.2 1016797
08:00+7с466747 0.2 1016719
11:00+9св225888 0.0 1017747
14:00+10юв235470 0.0 1015681
17:00+10вюв446033 0.0 1014450
20:00+11юв566325 0.0 1015452
30 января, сб
сб3023:00+12юв6771100 0.1 1014517
02:00+13юв9117897 0.4 1012733
05:00+13юв91180100 0.4 1009805
08:00+14юв111285100 1.4 1006684
11:00+16ю111576100 2.3 10041211
14:00+17зюз14177397 4.7 10021974
17:00+15зюз101567100 2.4 10011495
20:00+16сз11136786 3.6 10041310
31 января, вс
вс3123:00+14сз89730 0.0 1007821
02:00+14зсз67691 0.0 1008879
05:00+14зсз687217 0.0 1009889
08:00+14зсз136639 0.0 1010638
11:00+15ююв4560100 0.0 1011940
14:00+16ю687181 0.0 1010994
17:00+16ююв9117233 0.0 1010825
20:00+16ююв12157841 0.0 10101012
1 февраля, пн
пн123:00+16ююв13178071 0.1 10101250
02:00+16ююв14188186 0.1 10091251
05:00+16ююв161984100 3.1 10081245
08:00+16ююз5979100 9.1 1009664
11:00+17ююз5773100 2.8 1010640
14:00+17зюз567362 3.7 1009695
17:00+16зюз346952 0.0 1010599
20:00+15ююз236976 0.0 1011417